CW8443 Weather Reports


Display with metric or nautical units.
time (UTC)temp
F
wind
direction
speed
MPH
gust
MPH
rain 1hr
in
rain 24hr
in
rain mn
in
humidity
%
barometer
mb
20260506023246 69 186 0.0 0.0 0.00 0.00 0.00 52 1016.3
20260506023130 69 183 0.0 0.0 0.00 0.00 0.00 52 1016.3
20260506022751 69 186 0.0 0.0 0.00 0.00 0.00 52 1016.7
20260506022243 69 313 0.0 0.0 0.00 0.00 0.00 52 1016.7
20260506021249 68 139 0.0 0.0 0.00 0.00 0.00 53 1016.9
20260506020742 68 173 0.0 0.0 0.00 0.00 0.00 53 1016.9
20260506020256 68 237 0.0 0.0 0.00 0.00 0.00 52 1016.9
20260506020140 68 186 0.0 0.0 0.00 0.00 0.00 52 1016.9
20260506015740 68 131 0.0 0.0 0.00 0.00 0.00 52 1017.3
20260506015245 67 128 0.0 0.0 0.00 0.00 0.00 51 1017.3
20260506014739 67 111 0.0 0.0 0.00 0.00 0.00 51 1017.3
20260506014248 66 231 0.0 0.0 0.00 0.00 0.00 52 1017.5
20260506013736 66 144 0.0 0.0 0.00 0.00 0.00 50 1017.5
20260506013146 66 216 0.0 0.0 0.00 0.00 0.00 50 1017.5
20260506012749 65 28 0.0 0.0 0.00 0.00 0.00 51 1017.9
20260506012242 65 28 0.0 0.0 0.00 0.00 0.00 51 1017.9
20260506011235 64 323 0.0 0.0 0.00 0.00 0.00 52 1018.0
20260506010751 64 327 0.0 0.0 0.00 0.00 0.00 52 1018.0
20260506010247 64 2 0.0 0.0 0.00 0.00 0.00 51 1018.0
20260506010135 64 4 0.0 0.0 0.00 0.00 0.00 52 1018.0
20260506005247 63 2 0.0 0.0 0.00 0.00 0.00 52 1018.1
20260506004741 63 2 0.0 0.0 0.00 0.00 0.00 52 1018.1
20260506004251 63 2 0.0 0.0 0.00 0.00 0.00 52 1018.3
20260506003243 62 2 0.0 0.0 0.00 0.00 0.00 54 1018.3
20260506002751 61 2 0.0 0.0 0.00 0.00 0.00 54 1018.5
20260506002240 61 4 0.0 0.0 0.00 0.00 0.00 54 1018.5
20260506001737 61 2 0.0 0.0 0.00 0.00 0.00 54 1018.5
20260506001243 61 1 0.0 0.0 0.00 0.00 0.00 54 1018.6
20260506000743 61 2 0.0 0.0 0.00 0.00 0.00 54 1018.6
20260506000241 61 1 0.0 0.0 0.00 0.00 0.00 54 1018.6
20260506000145 61 1 0.0 0.0 0.00 0.00 0.00 54 1018.6
20260505235747 61 1 0.0 0.0 0.00 0.00 0.00 54 1018.6
20260505235237 61 1 0.0 0.0 0.00 0.00 0.00 55 1018.6
20260505234752 61 1 0.0 0.0 0.00 0.00 0.00 54 1018.6
20260505234244 61 1 0.0 0.0 0.00 0.00 0.00 54 1018.6
20260505233735 61 2 0.0 0.0 0.00 0.00 0.00 55 1018.6
20260505233252 61 360 0.0 0.0 0.00 0.00 0.00 54 1018.6
20260505233136 61 5 0.0 0.0 0.00 0.00 0.00 54 1018.6
20260505232739 61 14 0.0 0.0 0.00 0.00 0.00 54 1018.7
20260505232245 61 12 0.0 0.0 0.00 0.00 0.00 54 1018.7
20260505231740 61 14 0.0 0.0 0.00 0.00 0.00 56 1018.7
20260505231250 60 25 0.0 0.0 0.00 0.00 0.00 56 1018.5
20260505230744 60 357 0.0 0.0 0.00 0.00 0.00 56 1018.5
20260505230243 60 353 0.0 0.0 0.00 0.00 0.00 58 1018.5
20260505230127 60 2 0.0 0.0 0.00 0.00 0.00 58 1018.5
20260505225749 59 4 0.0 0.0 0.00 0.00 0.00 58 1018.7
20260505225238 59 347 0.0 0.0 0.00 0.00 0.00 59 1018.7
20260505224245 59 347 0.0 0.0 0.00 0.00 0.00 60 1018.5
20260505223735 59 347 0.0 0.0 0.00 0.00 0.00 60 1018.5
20260505223250 58 347 0.0 0.0 0.00 0.00 0.00 60 1018.5
20260505222738 58 348 0.0 0.0 0.00 0.00 0.00 60 1018.7
20260505222246 58 316 0.0 0.0 0.00 0.00 0.00 60 1018.7
20260505221740 58 316 0.0 0.0 0.00 0.00 0.00 60 1018.7
20260505221252 58 317 0.0 0.0 0.00 0.00 0.00 60 1018.8
20260505220746 58 316 0.0 0.0 0.00 0.00 0.00 60 1018.8
20260505220245 57 316 0.0 0.0 0.00 0.00 0.00 60 1018.8
20260505220129 57 316 0.0 0.0 0.00 0.00 0.00 60 1018.8
20260505215750 57 313 0.0 0.0 0.00 0.00 0.00 61 1018.6
20260505215240 57 307 0.0 0.0 0.00 0.00 0.00 61 1018.6
20260505214753 57 307 0.0 0.0 0.00 0.00 0.00 62 1018.6
20260505214244 57 302 0.0 0.0 0.00 0.00 0.00 62 1018.8
20260505213751 57 303 0.0 0.0 0.00 0.00 0.00 63 1018.8
20260505213250 56 261 0.0 0.0 0.00 0.00 0.00 64 1018.8
20260505213135 56 251 0.0 0.0 0.00 0.00 0.00 64 1018.8
20260505212740 56 251 0.0 0.0 0.00 0.00 0.00 65 1018.7
20260505212252 56 255 0.0 0.0 0.00 0.00 0.00 66 1018.7
20260505211746 56 259 0.0 0.0 0.00 0.00 0.00 67 1018.7
20260505211240 55 235 0.0 0.0 0.00 0.00 0.00 68 1018.5
20260505210739 55 233 0.0 0.0 0.00 0.00 0.00 69 1018.5
20260505210239 55 234 0.0 0.0 0.00 0.00 0.00 69 1018.5
20260505210143 55 235 0.0 0.0 0.00 0.00 0.00 69 1018.5
20260505205745 55 234 0.0 0.0 0.00 0.00 0.00 69 1018.7
20260505205251 55 234 0.0 0.0 0.00 0.00 0.00 69 1018.7
20260505204744 55 240 0.0 0.0 0.00 0.00 0.00 69 1018.7
20260505204235 55 241 0.0 0.0 0.00 0.00 0.00 70 1018.5
20260505203745 55 237 0.0 0.0 0.00 0.00 0.00 70 1018.5
20260505203242 55 233 0.0 0.0 0.00 0.00 0.00 70 1018.5
20260505203145 54 233 0.0 0.0 0.00 0.00 0.00 70 1018.5
20260505202243 54 233 0.0 0.0 0.00 0.00 0.00 70 1018.6
20260505201737 54 234 0.0 0.0 0.00 0.00 0.00 70 1018.6
20260505201246 54 234 0.0 0.0 0.00 0.00 0.00 70 1018.4
20260505200739 54 235 0.0 0.0 0.00 0.00 0.00 70 1018.4
20260505200238 54 234 0.0 0.0 0.00 0.00 0.00 70 1018.4
20260505200142 54 234 0.0 0.0 0.00 0.00 0.00 70 1018.4
20260505195236 54 233 0.0 0.0 0.00 0.00 0.00 69 1018.5
20260505194244 54 233 0.0 0.0 0.00 0.00 0.00 69 1018.2
20260505193735 54 234 0.0 0.0 0.00 0.00 0.00 69 1018.2
20260505193254 54 233 0.0 0.0 0.00 0.00 0.00 68 1018.2
20260505193137 54 234 0.0 0.0 0.00 0.00 0.00 68 1018.2
20260505192740 54 233 0.0 0.0 0.00 0.00 0.00 68 1018.2
20260505192250 54 234 0.0 0.0 0.00 0.00 0.00 68 1018.2
20260505191744 54 234 0.0 0.0 0.00 0.00 0.00 68 1018.2
20260505191236 54 233 0.0 0.0 0.00 0.00 0.00 68 1018.0
20260505190746 54 233 0.0 0.0 0.00 0.00 0.00 67 1018.0
20260505190248 54 233 0.0 0.0 0.00 0.00 0.00 67 1018.0
20260505190132 54 234 0.0 0.0 0.00 0.00 0.00 67 1018.0
20260505185734 54 233 0.0 0.0 0.00 0.00 0.00 67 1018.0
20260505185246 54 233 0.0 0.0 0.00 0.00 0.00 67 1018.0
20260505184740 54 233 0.0 0.0 0.00 0.00 0.00 67 1018.0
20260505184248 54 234 0.0 0.0 0.00 0.00 0.00 66 1018.0
20260505183741 54 234 0.0 0.0 0.00 0.00 0.00 66 1018.0
20260505183239 54 234 0.0 0.0 0.00 0.00 0.00 66 1018.0
20260505183142 54 234 0.0 0.0 0.00 0.00 0.00 65 1018.0
20260505182744 54 234 0.0 0.0 0.00 0.00 0.00 65 1018.1
20260505181746 55 234 0.0 0.0 0.00 0.00 0.00 65 1018.1
20260505180741 55 235 0.0 0.0 0.00 0.00 0.00 64 1018.0
20260505180239 55 235 0.0 0.0 0.00 0.00 0.00 64 1018.0
20260505180142 55 238 0.0 0.0 0.00 0.00 0.00 64 1018.0
20260505175745 55 234 0.0 0.0 0.00 0.00 0.00 64 1017.9
20260505175236 55 234 0.0 0.0 0.00 0.00 0.00 64 1017.9
20260505174752 55 234 0.0 0.0 0.00 0.00 0.00 63 1017.9
20260505174241 55 235 0.0 0.0 0.00 0.00 0.00 63 1017.9
20260505173750 56 235 0.0 0.0 0.00 0.00 0.00 62 1018.0
20260505173138 56 238 0.0 0.0 0.00 0.00 0.00 62 1018.0
20260505172736 56 238 0.0 0.0 0.00 0.00 0.00 61 1018.0
20260505171744 56 238 0.0 0.0 0.00 0.00 0.00 59 1018.0
20260505171235 56 241 0.0 0.0 0.00 0.00 0.00 58 1018.0
20260505170749 56 234 0.0 0.0 0.00 0.00 0.00 56 1018.0
20260505170245 56 240 0.0 0.0 0.00 0.00 0.00 56 1018.0
20260505165752 56 240 0.0 0.0 0.00 0.00 0.00 55 1018.0
20260505165242 56 237 0.0 0.0 0.00 0.00 0.00 55 1018.0
20260505164737 57 238 0.0 0.0 0.00 0.00 0.00 54 1018.0
20260505164244 57 240 0.0 0.0 0.00 0.00 0.00 54 1018.0
20260505163753 57 238 0.0 0.0 0.00 0.00 0.00 54 1018.0
20260505163252 57 240 0.0 0.0 0.00 0.00 0.00 54 1018.0
20260505163135 57 238 0.0 0.0 0.00 0.00 0.00 54 1018.0
20260505162254 57 235 0.0 0.0 0.00 0.00 0.00 53 1018.0
20260505161748 58 235 0.0 0.0 0.00 0.00 0.00 52 1018.0
20260505161237 58 237 0.0 0.0 0.00 0.00 0.00 52 1018.0
20260505160752 58 234 0.0 0.0 0.00 0.00 0.00 51 1018.0
20260505160248 58 234 0.0 0.0 0.00 0.00 0.00 50 1018.0
20260505160132 58 234 0.0 0.0 0.00 0.00 0.00 50 1018.0
20260505153251 59 237 0.0 0.0 0.00 0.00 0.00 49 1018.0
20260505153137 59 241 0.0 0.0 0.00 0.00 0.00 49 1018.0
20260505152737 59 237 0.0 0.0 0.00 0.00 0.00 49 1018.2
20260505152246 59 233 0.0 0.0 0.00 0.00 0.00 48 1018.2
20260505151742 59 234 0.0 0.0 0.00 0.00 0.00 48 1018.2
20260505150746 59 242 0.0 0.0 0.00 0.00 0.00 47 1018.2
20260505150244 59 213 0.0 0.0 0.00 0.00 0.00 47 1018.2
20260505150132 59 170 0.0 0.0 0.00 0.00 0.00 47 1018.2
20260505140244 60 155 0.0 0.0 0.00 0.00 0.00 47 1018.1
20260505130243 60 179 0.0 0.0 0.00 0.00 0.00 55 1018.0
20260505130129 60 163 0.0 0.0 0.00 0.00 0.00 55 1018.0
20260505124738 60 189 0.0 0.0 0.00 0.00 0.00 56 1017.9
20260505124247 60 179 0.0 0.0 0.00 0.00 0.00 56 1017.9
20260505123737 60 159 0.0 0.0 0.00 0.00 0.00 56 1017.9
20260505123237 61 182 0.0 0.0 0.00 0.00 0.00 57 1017.9
20260505123141 61 161 0.0 0.0 0.00 0.00 0.00 57 1017.9
20260505122743 61 186 0.0 0.0 0.00 0.00 0.00 56 1017.9
20260505122254 61 186 0.0 0.0 0.00 0.00 0.00 56 1017.9
20260505121242 61 151 0.0 0.0 0.00 0.00 0.00 55 1018.0
20260505120242 61 172 0.0 0.0 0.00 0.00 0.00 54 1018.0
20260505120130 61 186 0.0 0.0 0.00 0.00 0.00 54 1018.0
20260505115749 61 121 0.0 0.0 0.00 0.00 0.00 54 1017.7
20260505115245 61 163 0.0 0.0 0.00 0.00 0.00 53 1017.7
20260505114739 61 170 0.0 0.0 0.00 0.00 0.00 53 1017.7
20260505114247 61 179 0.0 0.0 0.00 0.00 0.00 53 1017.7
20260505113737 61 142 0.0 0.0 0.00 0.00 0.00 52 1017.7
20260505113254 61 192 0.0 0.0 0.00 0.00 0.00 52 1017.7
20260505112239 61 156 0.0 0.0 0.00 0.00 0.00 51 1017.5
20260505111734 61 142 0.0 0.0 0.00 0.00 0.00 50 1017.5
20260505111244 61 142 0.0 0.0 0.00 0.00 0.00 50 1017.4
20260505110752 61 187 0.0 0.0 0.00 0.00 0.00 49 1017.4
20260505110251 61 118 0.0 0.0 0.00 0.00 0.00 49 1017.4
20260505110135 61 254 0.0 0.0 0.00 0.00 0.00 48 1017.4
20260505101746 61 117 0.0 0.0 0.00 0.00 0.00 47 1016.9
20260505101236 61 154 0.0 0.0 0.00 0.00 0.00 48 1016.6
20260505100250 61 131 0.0 0.0 0.00 0.00 0.00 49 1016.6
20260505100134 61 185 0.0 0.0 0.00 0.00 0.00 49 1016.6
20260505095738 61 173 0.0 0.0 0.00 0.00 0.00 49 1016.5
20260505095247 62 154 0.0 0.0 0.00 0.00 0.00 50 1016.5
20260505094254 62 145 0.0 0.0 0.00 0.00 0.00 49 1016.4
20260505093743 62 135 0.0 0.0 0.00 0.00 0.00 49 1016.4
20260505093255 62 216 0.0 0.0 0.00 0.00 0.00 49 1016.4
20260505092746 62 156 0.0 0.0 0.00 0.00 0.00 48 1016.2
20260505092236 62 161 0.0 0.0 0.00 0.00 0.00 48 1016.2
20260505091750 63 172 0.0 0.0 0.00 0.00 0.00 47 1016.2
20260505091242 63 220 0.0 0.0 0.00 0.00 0.00 47 1016.0
20260505090741 63 145 0.0 0.0 0.00 0.00 0.00 46 1016.0
20260505090256 63 186 0.0 0.0 0.00 0.00 0.00 45 1016.0
20260505090140 63 135 0.0 0.0 0.00 0.00 0.00 45 1016.0
20260505085736 63 259 0.0 0.0 0.00 0.00 0.00 44 1015.8
20260505085246 63 148 0.0 0.0 0.00 0.00 0.00 44 1015.8
20260505084739 63 186 0.0 0.0 0.00 0.00 0.00 44 1015.8
20260505084249 64 137 0.0 0.0 0.00 0.00 0.00 43 1015.6
20260505083739 64 152 0.0 0.0 0.00 0.00 0.00 43 1015.6
20260505083254 64 135 0.0 0.0 0.00 0.00 0.00 41 1015.6
20260505082741 65 151 0.0 0.0 0.00 0.00 0.00 40 1015.6
20260505082252 65 165 0.0 0.0 0.00 0.00 0.00 38 1015.6
20260505081746 65 135 0.0 0.0 0.00 0.00 0.00 38 1015.6
20260505080738 66 165 0.0 0.0 0.00 0.00 0.00 35 1015.5
20260505080255 66 159 0.0 0.0 0.00 0.00 0.00 33 1015.5
20260505080139 66 231 0.0 0.0 0.00 0.00 0.00 34 1015.5
20260505075739 66 152 0.0 0.0 0.00 0.00 0.00 33 1015.4
20260505075251 66 187 0.0 0.0 0.00 0.00 0.00 33 1015.4
20260505074746 67 230 0.0 0.0 0.00 0.00 0.00 32 1015.4
20260505073754 67 145 0.0 0.0 0.00 0.00 0.00 30 1015.3
20260505073251 67 185 0.0 0.0 0.00 0.00 0.00 30 1015.3
20260505073135 68 176 0.0 0.0 0.00 0.00 0.00 31 1015.3
20260505072736 68 168 0.0 0.0 0.00 0.00 0.00 32 1015.1
20260505071741 68 154 0.0 0.0 0.00 0.00 0.00 31 1015.1
20260505071252 68 221 0.0 0.0 0.00 0.00 0.00 31 1014.9
20260505070258 69 206 0.0 0.0 0.00 0.00 0.00 31 1014.9
20260505065745 69 186 0.0 0.0 0.00 0.00 0.00 30 1014.9
20260505065237 69 132 0.0 0.0 0.00 0.00 0.00 30 1014.9
20260505064750 69 156 0.0 0.0 0.00 0.00 0.00 29 1014.9
20260505064239 70 234 0.0 0.0 0.00 0.00 0.00 28 1014.7
20260505063749 70 141 0.0 0.0 0.00 0.00 0.00 28 1014.7
20260505063251 70 190 0.0 0.0 0.00 0.00 0.00 27 1014.7
20260505061746 71 172 0.0 0.0 0.00 0.00 0.00 26 1014.8
20260505061235 71 155 0.0 0.0 0.00 0.00 0.00 26 1014.5
20260505060735 72 186 0.0 0.0 0.00 0.00 0.00 25 1014.5
20260505060142 72 163 0.0 0.0 0.00 0.00 0.00 25 1014.5
20260505055742 72 186 0.0 0.0 0.00 0.00 0.00 25 1014.4
20260505055246 73 179 0.0 0.0 0.00 0.00 0.00 24 1014.4
20260505054738 74 176 0.0 0.0 0.00 0.00 0.00 24 1014.4
20260505054250 75 186 0.0 0.0 0.00 0.00 0.00 22 1014.3
20260505053740 75 134 0.0 0.0 0.00 0.00 0.00 20 1014.3
20260505053144 75 214 0.0 0.0 0.00 0.00 0.00 20 1014.3
20260505052241 75 165 0.0 0.0 0.00 0.00 0.00 17 1014.4
20260505051737 75 252 0.0 0.0 0.00 0.00 0.00 17 1014.4
20260505051245 77 120 0.0 0.0 0.00 0.00 0.00 14 1014.7
20260505050743 77 100 0.0 0.0 0.00 0.00 0.00 14 1014.7
20260505050240 76 111 0.0 0.0 0.00 0.00 0.00 14 1014.7
20260505050127 76 104 0.0 0.0 0.00 0.00 0.00 14 1014.7
20260505041747 75 244 0.0 0.0 0.00 0.00 0.00 14 1015.0
20260505041239 76 245 0.0 0.0 0.00 0.00 0.00 14 1015.0
20260505040748 76 115 0.0 0.0 0.00 0.00 0.00 13 1015.0
20260505040246 76 79 0.0 0.0 0.00 0.00 0.00 13 1015.0
20260505040130 76 83 0.0 0.0 0.00 0.00 0.00 13 1015.0
20260505035753 76 76 0.0 0.0 0.00 0.00 0.00 13 1014.9
20260505035241 77 69 0.0 0.0 0.00 0.00 0.00 14 1014.9
20260505034734 76 73 0.0 0.0 0.00 0.00 0.00 14 1014.9
20260505034245 76 43 0.0 0.0 0.00 0.00 0.00 16 1015.0
20260505033254 75 56 0.0 0.0 0.00 0.00 0.00 15 1015.0
20260505033138 75 59 0.0 0.0 0.00 0.00 0.00 15 1015.0
20260505032248 74 60 0.0 0.0 0.00 0.00 0.00 15 1014.9
20260505031743 74 331 0.0 0.0 0.00 0.00 0.00 16 1014.9
20260505031242 73 90 0.0 0.0 0.00 0.00 0.00 16 1014.9
20260505030737 73 59 0.0 0.0 0.00 0.00 0.00 16 1014.9
20260505030253 74 83 0.0 0.0 0.00 0.00 0.00 16 1014.9
20260505025742 73 360 0.0 0.0 0.00 0.00 0.00 16 1014.9
20260505025252 73 29 0.0 0.0 0.00 0.00 0.00 17 1014.9
20260505023747 73 2 0.0 0.0 0.00 0.00 0.00 17 1015.2
20260505023248 73 59 0.0 0.0 0.00 0.00 0.00 16 1015.2
20260505023132 73 76 0.0 0.0 0.00 0.00 0.00 17 1015.2
20260505022753 72 360 0.0 0.0 0.00 0.00 0.00 16 1015.1
20260505022242 72 354 0.0 0.0 0.00 0.00 0.00 16 1015.1
20260505021740 72 357 0.0 0.0 0.00 0.00 0.00 17 1015.1
20260505021251 72 8 0.0 0.0 0.00 0.00 0.00 17 1015.1
20260505020249 71 314 0.0 0.0 0.00 0.00 0.00 17 1015.1
20260505020133 71 8 0.0 0.0 0.00 0.00 0.00 17 1015.1
20260505015754 71 14 0.0 0.0 0.00 0.00 0.00 18 1015.2
20260505015241 71 80 0.0 0.0 0.00 0.00 0.00 17 1015.2
20260505014246 70 4 0.0 0.0 0.00 0.00 0.00 18 1015.1
20260505013737 70 7 0.0 0.0 0.00 0.00 0.00 17 1015.1
20260505013254 70 329 0.0 0.0 0.00 0.00 0.00 17 1015.1
20260505012745 69 31 0.0 0.0 0.00 0.00 0.00 19 1014.9
20260505012253 69 69 0.0 0.0 0.00 0.00 0.00 18 1014.9
20260505011244 69 65 0.0 0.0 0.00 0.00 0.00 19 1015.0
20260505010754 69 31 0.0 0.0 0.00 0.00 0.00 18 1015.0
20260505010252 68 26 0.0 0.0 0.00 0.00 0.00 19 1015.0
20260505010136 68 10 0.0 0.0 0.00 0.00 0.00 19 1015.0
20260505004249 67 348 0.0 0.0 0.00 0.00 0.00 19 1014.9
20260505003241 67 330 0.0 0.0 0.00 0.00 0.00 18 1014.9
20260505003144 67 346 0.0 0.0 0.00 0.00 0.00 18 1014.9
20260505002743 67 329 0.0 0.0 0.00 0.00 0.00 18 1015.0
20260505002252 66 7 0.0 0.0 0.00 0.00 0.00 19 1014.9
20260505001745 66 70 0.0 0.0 0.00 0.00 0.00 19 1014.9
20260505000752 65 329 0.0 0.0 0.00 0.00 0.00 21 1014.9
20260505000248 65 320 0.0 0.0 0.00 0.00 0.00 18 1014.9
20260505000132 65 316 0.0 0.0 0.00 0.00 0.00 20 1014.9
20260504235753 65 353 0.0 0.0 0.00 0.00 0.00 19 1014.9
20260504235242 64 7 0.0 0.0 0.00 0.00 0.00 20 1014.9
20260504234739 64 307 0.0 0.0 0.00 0.00 0.00 21 1014.9
20260504234244 64 317 0.0 0.0 0.00 0.00 0.00 21 1015.3
20260504233754 64 296 0.0 0.0 0.00 0.00 0.00 22 1015.3
20260504233141 64 343 0.0 0.0 0.00 0.00 0.00 22 1015.3
20260504232237 63 337 0.0 0.0 0.00 0.00 0.00 23 1015.3
20260504231751 63 4 0.0 0.0 0.00 0.00 0.00 24 1015.3
20260504231242 63 12 0.0 0.0 0.00 0.00 0.00 25 1015.3
20260504230736 62 314 0.0 0.0 0.00 0.00 0.00 25 1015.3
20260504230253 62 104 0.0 0.0 0.00 0.00 0.00 25 1015.3
20260504230138 62 329 0.0 0.0 0.00 0.00 0.00 25 1015.3
20260504225736 62 327 0.0 0.0 0.00 0.00 0.00 26 1015.2
20260504225245 62 344 0.0 0.0 0.00 0.00 0.00 25 1015.2
20260504224740 62 327 0.0 0.0 0.00 0.00 0.00 25 1015.2
20260504224250 62 26 0.0 0.0 0.00 0.00 0.00 25 1015.0
20260504223743 61 93 0.0 0.0 0.00 0.00 0.00 26 1014.9
20260504223245 61 42 0.0 0.0 0.00 0.00 0.00 26 1014.9
20260504223129 61 288 0.0 0.0 0.00 0.00 0.00 26 1014.9
20260504222753 61 313 0.0 0.0 0.00 0.00 0.00 27 1015.1
20260504222243 61 8 0.0 0.0 0.00 0.00 0.00 27 1015.1
20260504221736 60 322 0.0 0.0 0.00 0.00 0.00 27 1015.1
20260504221245 60 336 0.0 0.0 0.00 0.00 0.00 28 1014.8
20260504220238 60 299 0.0 0.0 0.00 0.00 0.00 27 1014.8
20260504220146 60 309 0.0 0.0 0.00 0.00 0.00 28 1014.8
20260504215240 59 354 0.0 0.0 0.00 0.00 0.00 30 1014.7
20260504214252 58 288 0.0 0.0 0.00 0.00 0.00 31 1014.4
20260504213744 58 317 0.0 0.0 0.00 0.00 0.00 31 1014.4
20260504213243 57 84 0.0 0.0 0.00 0.00 0.00 32 1014.4
20260504213127 57 310 0.0 0.0 0.00 0.00 0.00 32 1014.4
20260504212749 57 329 0.0 0.0 0.00 0.00 0.00 32 1014.2
20260504212240 57 317 0.0 0.0 0.00 0.00 0.00 32 1014.2
20260504211753 57 322 0.0 0.0 0.00 0.00 0.00 33 1014.2
20260504211243 56 312 0.0 0.0 0.00 0.00 0.00 34 1013.8
20260504210745 56 313 0.0 0.0 0.00 0.00 0.00 35 1013.8
20260504210131 56 309 0.0 0.0 0.00 0.00 0.00 37 1013.8
20260504205752 55 326 0.0 0.0 0.00 0.00 0.00 38 1013.5
20260504205241 55 327 0.0 0.0 0.00 0.00 0.00 39 1013.5
20260504204735 54 327 0.0 0.0 0.00 0.00 0.00 40 1013.5
20260504204244 54 326 0.0 0.0 0.00 0.00 0.00 40 1013.3
20260504203738 54 326 0.0 0.0 0.00 0.00 0.00 40 1013.3
20260504203237 54 343 0.0 0.0 0.00 0.00 0.00 41 1013.3
20260504203140 54 340 0.0 0.0 0.00 0.00 0.00 41 1013.3
20260504202738 54 331 0.0 0.0 0.00 0.00 0.00 41 1013.0
20260504202248 54 347 0.0 0.0 0.00 0.00 0.00 41 1013.0
20260504200739 54 12 0.0 0.0 0.00 0.00 0.00 39 1012.5
20260504200236 54 334 0.0 0.0 0.00 0.00 0.00 39 1012.5
20260504200140 54 334 0.0 0.0 0.00 0.00 0.00 39 1012.5
20260504195741 54 333 0.0 0.0 0.00 0.00 0.00 38 1011.9
20260504195252 54 338 0.0 0.0 0.00 0.00 0.00 36 1011.9
20260504194744 54 346 0.0 0.0 0.00 0.00 0.00 36 1011.9
20260504193748 54 313 0.0 0.0 0.00 0.00 0.00 37 1011.7
20260504193137 54 80 0.0 0.0 0.00 0.00 0.00 37 1011.7
20260504192739 54 11 0.0 0.0 0.00 0.00 0.00 37 1011.5
20260504192250 55 306 0.0 0.0 0.00 0.00 0.00 37 1011.5
20260504191747 55 302 0.0 0.0 0.00 0.00 0.00 37 1011.5
20260504191238 55 320 0.0 0.0 0.00 0.00 0.00 36 1011.0
20260504190752 55 337 0.0 0.0 0.00 0.00 0.00 33 1011.0
20260504190250 55 346 0.0 0.0 0.00 0.00 0.00 33 1011.0
20260504190137 55 357 0.0 0.0 0.00 0.00 0.00 33 1011.0
20260504185238 55 334 0.0 0.0 0.00 0.00 0.00 35 1010.7
20260504184748 55 300 0.0 0.0 0.00 0.00 0.00 36 1010.7
20260504184241 55 316 0.0 0.0 0.00 0.00 0.00 37 1010.3
20260504183751 55 29 0.0 0.0 0.00 0.00 0.00 38 1010.3
20260504183249 55 313 0.0 0.0 0.00 0.00 0.00 40 1010.3
20260504183137 55 306 0.0 0.0 0.00 0.00 0.00 40 1010.3
20260504182742 55 347 0.0 0.0 0.00 0.00 0.00 40 1010.2
20260504182252 55 2 0.0 0.0 0.00 0.00 0.00 42 1010.2
20260504181745 55 353 0.0 0.0 0.00 0.00 0.00 41 1010.2
20260504181235 55 24 0.0 0.0 0.00 0.00 0.00 41 1009.6
20260504180736 55 326 0.0 0.0 0.00 0.00 0.00 41 1009.6
20260504180254 55 45 0.0 0.0 0.00 0.00 0.00 41 1009.6
20260504180137 55 355 0.0 0.0 0.00 0.00 0.00 41 1009.6
20260504175735 55 326 0.0 0.0 0.00 0.00 0.00 41 1008.9
20260504175247 55 326 0.0 0.0 0.00 0.00 0.00 41 1008.9
20260504174740 55 323 0.0 0.0 0.00 0.00 0.00 41 1008.9
20260504174250 55 322 0.0 0.0 0.00 0.00 0.00 41 1008.4
20260504173739 55 322 0.0 0.0 0.00 0.00 0.00 42 1008.4
20260504173130 55 317 0.0 0.0 0.00 0.00 0.00 43 1008.4
20260504172750 55 320 0.0 0.0 0.00 0.00 0.00 43 1008.3
20260504172238 54 83 0.0 0.0 0.00 0.00 0.00 44 1008.2
20260504170740 54 8 0.0 0.0 0.00 0.00 0.00 44 1007.8
20260504170237 54 336 0.0 0.0 0.00 0.00 0.00 44 1007.8
20260504170141 54 323 0.0 0.0 0.00 0.00 0.00 44 1007.8
20260504160251 55 350 0.0 0.0 0.00 0.00 0.00 43 1006.6
20260504160135 55 55 0.0 0.0 0.00 0.00 0.00 43 1006.6
20260504150744 58 348 0.0 0.0 0.00 0.00 0.00 45 1004.9
20260504150242 58 354 0.0 0.0 0.00 0.00 0.00 45 1004.9
20260504150146 58 322 0.0 0.0 0.00 0.00 0.00 45 1004.9